User: anonymous   Login
Location: Hoyos del Collado
(40.3594°N, 5.2003°W)
Time: 16:32:19
(UTC+00:00)
Language:

ATLAS 5 CENTAUR R/B - Orbit

View from above orbital plane
View from above orbital plane
View from above satellite
View from above satellite

Ground track
Ground track

The orbit data is extracted from the following two-line orbital elements,

1 31702U 07027B   24169.76585321  .00006159  00000-0  53155-3 0  9991
2 31702  63.3294 291.3306 0522285  32.6804 330.5466 14.29529961  5610
Epoch (UTC): 17 June 2024 18:22:49
Eccentricity: 0.0522285
inclination: 63.3294°
perigee height: 419 km
apogee height: 1168 km
right ascension of ascending node: 291.3306°
argument of perigee: 32.6804°
revolutions per day: 14.29529961
mean anomaly at epoch: 330.5466°
orbit number at epoch: 561

The dashed part of the orbit path shows where the satellite is in the earth's shadow,  

DLR